This demonstration page uses our WeatherBlox Daily Observations layout. Learn more.

Left ArrowRight Arrow

38.88101, -77.10428

Hourly Observations for May 14, 2020

Temp ( °F °C ) Dew Point ( °F °C ) Humidity (%) Winds ( mph kmh ) Pressure ( in mb ) Visibility ( mi km ) Precip ( " mm )
12:52 am 00:52 Partly Cloudy 53 11.7 44 6.7 72 72 SSW 6 9 30.28 1026 10 16.0934 0 0
1:52 am 01:52 Partly Cloudy 53 11.7 44 6.7 72 72 SSW 7 11 30.28 1025 10 16.0934 0 0
2:52 am 02:52 Mostly Clear 53 11.7 45 7.2 74 74 SW 3 6 30.28 1026 10 16.0934 0 0
3:52 am 03:52 Partly Cloudy 52 11.1 45 7.2 77 77 Calm 30.29 1026 10 16.0934 0 0
4:52 am 04:52 Mostly Cloudy 52 11.1 44 6.7 75 75 Calm 30.29 1026 10 16.0934 0 0
5:52 am 05:52 Mostly Cloudy 52 11.1 46 7.8 80 80 Calm 30.28 1026 10 16.0934 0 0
6:52 am 06:52 Mostly Cloudy 53 11.7 46 7.8 77 77 Calm 30.29 1026 10 16.0934 0 0
7:52 am 07:52 Mostly Cloudy 56 13.3 47 8.3 72 72 Calm 30.31 1026 10 16.0934 0 0
8:52 am 08:52 Mostly Cloudy 59 15 49 9.4 69 69 SSE 9 15 30.31 1026 10 16.0934 0 0
9:52 am 09:52 Cloudy 60 15.6 48 8.9 65 65 S 9 15 30.31 1026 10 16.0934 0 0
10:52 am 10:52 Cloudy 61 16.1 50 10 67 67 S 8 13 30.29 1026 10 16.0934 0 0
11:52 am 11:52 Cloudy 64 17.8 50 10 60 60 S 6 9 30.26 1025 10 16.0934 0 0
12:52 pm 12:52 Cloudy 65 18.3 52 11.1 63 63 S 12 19 30.24 1024 10 16.0934 0 0
1:52 pm 13:52 Cloudy 67 19.4 51 10.6 57 57 S 13 20 30.21 1023 10 16.0934 0.001 0.001
2:52 pm 14:52 Cloudy 69 20.6 54 12.2 59 59 S 8 13 30.18 1022 10 16.0934 0 0
3:52 pm 15:52 Cloudy with Light Rain 66 18.9 57 13.9 73 73 S 8 13 30.16 1022 9 14.48406 0.01 0.254
4:52 pm 16:52 Mostly Cloudy 68 20 56 13.3 65 65 S 8 13 30.14 1021 10 16.0934 0.001 0.001
5:52 pm 17:52 Mostly Cloudy 69 20.6 55 12.8 61 61 S 6 9 30.12 1020 10 16.0934 0 0
6:52 pm 18:52 Partly Cloudy 70 21.1 56 13.3 61 61 S 5 7 30.1 1019 10 16.0934 0 0
7:52 pm 19:52 Partly Cloudy 69 20.6 55 12.8 61 61 S 3 6 30.09 1019 10 16.0934 0 0
8:52 pm 20:52 Mostly Cloudy 69 20.6 55 12.8 61 61 Calm 30.1 1019 10 16.0934 0 0
9:52 pm 21:52 Cloudy 66 18.9 56 13.3 70 70 Calm 30.12 1020 10 16.0934 0 0
10:52 pm 22:52 Mostly Cloudy with Light Rain 63 17.2 59 15 87 87 SSW 7 11 30.09 1019 9 14.48406 0.01 0.254
11:52 pm 23:52 Mostly Cloudy 64 17.8 60 15.6 87 87 S 12 19 30.08 1019 10 16.0934 0.001 0.001

Powered by AerisWeather